Погода в Кюбяинде

Россия / Республика Саха (Якутия)     64°37′25″N   120°10′22″E
темп.,
°C
ветер,
м/с
пор.,
м/с
влажн.,
%
обл.,
%
осадки,
мм/ч
давл.,
гПа
погр.,
м
8 августа, пн
пн800:00+8ююз23966 0.0 100257
03:00+8ю2395100 0.0 100458
06:00+9ююв249549 0.0 100595
09:00+14ююв248198 0.0 1006386
12:00+17юв226198 0.0 1006856
15:00+17юв2368100 0.0 1006668
18:00+18в1270100 0.1 1006767
21:00+14в1189100 0.4 100711
9 августа, вт
вт900:00+12с1193100 0.0 100710
03:00+11с2295100 0.0 100828
06:00+11ссз2695100 0.0 1009148
09:00+15с457847 0.0 1009392
12:00+18с455951 0.0 1009912
15:00+20ссз445384 0.0 10101331
18:00+19ссз455736 0.0 10101243
21:00+14ссз22805 0.0 101028
10 августа, ср
ср1000:00+11сз22905 0.0 101033
03:00+10сз229355 0.0 101035
06:00+10сз259044 0.0 1010107
09:00+16ссз346688 0.0 1009380
12:00+20ссз445398 0.0 10081118
15:00+21ссз344922 0.0 10071539
18:00+21ссз345322 0.0 10061608
21:00+16зсз23775 0.0 100730
11 августа, чт
чт1100:00+13зсз378224 0.0 1006102
03:00+14зсз3973100 0.0 1006187
06:00+12зсз3782100 0.0 1006127
09:00+18зсз456231 0.0 1006348
12:00+20сз3457100 0.0 1006724
15:00+23сз334633 0.0 10051814
18:00+21сз2261100 0.0 100558
21:00+18ссв2273100 0.0 100521
12 августа, пт
пт1200:00+17в2578100 0.0 1005119
03:00+15всв2565100 0.0 1006164
06:00+13всв2563100 0.0 1006157
09:00+13всв2360100 0.0 1006192
12:00+16всв22515 0.0 1006498
15:00+20всв21495 0.0 10051058
18:00+19всв335135 0.0 1005920
21:00+14всв596217 0.0 1006340